Wind_Speed
24 26 26 28 30 29 31 32 33 36 37 33 28 17 5 2 4 6 6 6 6 3 1 3 2 4 3 3 5 6 5 5 4 4 5 4 4 4 4 5 4 4 3 2 2 1 2 4 6 5 5 8 11 9 7 10 6 3 3 4 5 4 2 2 2 1 0 3 4 3 4 5 5 3 2 3 3 4 5 5 4 3 3 2 3 2 5
24 25 26 27 29 29 30 31 33 35 35 33 24 10 2 3 4 4 5 7 6 2 2 3 3 4 3 4 7 6 5 6 6 5 5 3 3 3 4 4 4 4 3 2 3 3 2 3 5 6 4 5 11 11 8 12 9 4 4 3 2 3 2 3 3 2 2 1 2 2 1 2 3 3 3 4 4 4 2 2 3 1 3 5 5 4 5
24 25 26 27 28 29 30 31 34 35 34 31 20 6 2 4 3 2 3 6 5 1 2 2 3 4 4 6 7 5 4 6 7 6 5 4 3 2 3 3 3 3 3 4 6 6 5 4 5 5 4 2 7 8 10 14 12 8 8 6 1 3 2 3 5 5 6 6 5 4 2 2 3 3 3 4 6 6 3 1 3 0 3 4 5 5 3
25 25 25 26 27 29 30 31 34 36 34 30 20 7 2 3 2 2 2 3 3 2 2 2 3 3 4 4 4 2 2 4 5 6 5 5 4 3 3 3 3 3 3 3 5 6 7 7 4 4 4 3 3 7 11 14 14 12 12 10 1 3 0 2 6 6 6 7 6 5 5 3 3 3 1 3 5 7 5 4 3 4 3 2 4 6 5
24 24 25 26 27 28 30 31 33 36 34 26 16 6 2 1 2 3 4 2 2 2 2 2 2 2 1 2 3 2 4 5 2 4 3 4 4 3 3 3 3 3 3 2 3 4 4 5 5 5 5 5 2 7 9 10 15 15 12 9 1 4 3 1 5 4 6 7 6 4 6 5 4 5 1 3 3 7 8 4 5 4 4 3 6 6 10
23 24 24 25 26 27 29 30 32 36 34 24 11 3 1 2 1 1 3 2 3 4 4 5 6 4 2 1 3 3 5 6 2 2 2 3 4 3 1 3 5 5 3 1 2 4 5 4 4 3 3 4 1 4 6 8 12 12 7 6 0 4 2 3 3 3 3 2 1 2 6 5 5 7 4 3 3 8 7 5 6 6 5 7 7 8 11
22 23 23 25 26 26 28 29 30 34 33 22 10 3 2 2 2 2 2 3 5 8 9 11 11 6 2 2 2 3 5 7 5 1 1 2 2 4 1 4 5 4 2 1 0 3 3 4 4 3 5 6 1 4 4 6 7 6 4 3 0 3 2 4 1 1 4 3 4 6 6 5 4 5 6 5 5 7 7 5 5 6 5 6 8 7 5
22 22 23 24 25 25 26 27 28 32 32 22 11 5 4 2 3 4 3 5 7 7 7 9 9 4 1 2 3 2 4 6 6 2 2 0 1 5 3 6 5 4 5 2 2 4 2 3 6 3 6 7 2 4 4 4 4 3 2 1 3 2 3 4 1 4 5 4 3 8 7 4 6 5 6 5 5 3 2 2 4 5 1 1 7 9 3
22 22 22 22 23 24 25 25 27 29 29 20 8 5 7 6 8 7 5 5 6 5 6 6 6 4 1 2 3 2 3 5 4 4 4 4 2 3 2 4 4 4 7 5 4 7 6 7 10 8 4 4 5 2 3 7 5 3 2 1 3 1 1 4 3 4 4 5 4 7 8 6 5 6 7 4 3 1 2 2 4 6 6 4 4 7 4
22 22 22 22 22 23 24 24 25 26 26 19 8 6 10 10 9 7 5 4 4 5 7 6 5 3 3 5 6 3 5 6 2 3 3 3 3 3 2 2 3 5 8 8 9 10 11 12 12 10 7 6 8 9 5 9 8 5 3 3 1 0 2 2 2 4 4 6 4 7 7 6 2 6 6 4 1 2 2 1 4 6 9 7 5 6 7
21 22 23 22 21 22 23 23 23 24 24 20 12 9 11 10 7 5 3 4 3 4 5 6 4 4 7 12 10 5 5 7 1 2 2 3 4 2 4 5 4 4 5 8 10 12 14 14 13 11 7 7 11 11 6 10 9 6 6 4 1 2 2 1 1 4 2 6 4 7 5 2 5 6 5 4 2 4 5 2 5 5 5 6 5 4 7
20 22 23 22 20 21 22 21 22 22 21 21 17 13 14 14 9 5 2 3 5 5 5 7 6 6 10 14 12 8 7 8 4 4 4 4 4 2 3 6 2 4 7 9 11 11 12 11 9 6 5 7 9 5 7 6 4 5 9 9 5 2 2 0 0 4 1 3 6 6 1 5 6 6 4 4 3 6 8 3 2 4 4 9 10 9 10
20 20 22 22 20 20 21 20 21 20 20 21 19 16 18 17 9 4 2 4 5 5 6 9 10 9 11 13 12 9 7 7 7 5 4 4 4 3 1 5 5 5 7 8 10 9 6 6 5 2 2 2 4 8 7 2 2 4 7 9 8 5 3 1 1 2 2 2 4 3 5 6 5 7 6 2 2 4 5 4 3 3 4 10 14 14 15
20 20 21 22 21 20 20 20 20 20 19 21 21 19 20 16 7 4 4 3 4 6 7 8 9 11 13 13 12 9 8 8 8 6 3 3 3 4 4 3 4 6 5 6 6 5 2 3 4 3 4 5 5 4 1 1 1 4 6 7 7 7 5 2 2 2 3 3 2 1 2 4 4 4 2 2 2 2 5 4 1 5 3 5 12 15 14
20 20 20 21 22 20 20 19 19 20 19 20 21 21 19 15 9 6 4 2 5 7 3 2 7 12 13 12 10 9 8 8 7 5 4 2 2 4 5 5 7 7 4 2 1 3 2 2 3 4 3 3 3 2 2 3 1 0 5 7 6 6 5 3 2 1 2 4 3 2 1 2 5 6 5 4 4 6 7 5 1 5 5 1 9 14 12
19 20 19 20 22 21 20 19 19 19 20 20 22 22 18 14 11 10 6 3 4 4 4 4 7 9 9 8 8 7 5 6 6 5 5 6 5 6 8 8 8 7 4 2 2 3 3 2 2 2 0 1 2 1 2 1 2 5 4 7 9 8 5 4 4 3 2 4 3 1 2 3 6 7 8 7 4 5 6 5 2 7 4 2 6 12 12
19 20 20 20 20 20 20 19 19 19 19 20 22 22 17 12 12 12 8 3 2 5 7 6 6 5 5 5 6 5 4 4 4 2 3 6 6 7 9 9 8 7 6 4 3 4 5 3 2 2 1 1 1 2 1 1 2 4 5 6 8 7 5 4 3 1 1 3 2 2 2 3 5 5 7 7 3 6 7 2 5 8 5 1 6 10 10
19 19 20 19 19 21 21 19 19 19 18 19 21 21 17 13 13 12 6 3 4 5 5 4 6 5 4 4 5 5 5 5 3 2 3 3 3 6 7 5 5 6 6 4 3 4 5 3 2 2 2 3 2 2 1 1 1 2 0 4 4 3 3 2 2 1 1 3 1 1 2 3 4 5 7 6 2 8 5 5 7 5 6 3 7 11 10
19 19 20 19 19 20 21 20 19 18 18 20 20 20 17 13 12 12 7 3 3 4 7 8 8 6 6 5 6 5 5 5 4 3 4 3 4 7 5 2 3 4 4 3 3 3 4 3 2 1 2 3 2 2 0 1 1 1 3 4 2 1 1 1 2 2 1 2 3 0 3 3 3 4 4 0 4 3 4 6 4 3 7 5 5 12 12
19 18 19 19 18 19 20 21 20 18 18 18 18 20 19 12 10 12 10 4 3 7 11 10 8 8 6 5 6 6 6 5 4 3 4 4 5 6 4 3 3 4 3 4 4 3 2 3 3 1 2 3 2 1 2 3 3 1 1 2 2 3 2 1 2 3 2 3 3 1 2 4 3 3 4 4 3 5 6 3 2 4 7 4 4 10 12
19 18 18 19 18 18 20 21 20 19 18 17 17 19 19 15 13 15 13 8 5 4 6 7 8 11 14 14 16 14 10 8 8 4 3 5 5 3 2 2 3 3 3 2 2 2 2 2 2 1 1 2 2 1 2 3 4 4 1 2 1 2 2 2 2 2 3 3 1 2 4 5 4 1 2 2 3 4 5 3 2 4 4 2 4 8 11
18 18 18 19 18 18 19 19 20 20 18 16 17 16 17 19 21 19 16 12 9 9 15 22 24 28 31 29 26 22 19 20 22 15 5 3 4 1 3 2 2 1 1 1 1 1 2 1 1 2 1 2 3 2 1 2 2 4 3 2 2 1 3 4 3 1 2 4 4 4 3 5 4 2 1 2 3 1 4 6 2 2 2 1 5 6 8
18 18 18 19 18 18 18 19 20 20 18 16 17 17 18 22 24 20 17 12 9 12 23 28 25 24 23 19 17 17 17 21 25 22 13 6 3 2 2 2 0 1 1 0 2 1 1 1 1 1 0 1 2 2 1 2 1 2 3 2 1 3 3 2 3 1 1 1 0 1 1 3 4 5 3 2 4 3 2 4 3 1 2 2 4 6 6
17 18 18 18 19 19 19 18 19 20 20 18 17 18 20 22 21 18 13 7 4 5 10 10 7 8 9 12 22 26 21 16 18 19 15 13 6 2 2 4 3 1 2 4 3 2 1 0 0 2 1 1 1 1 0 1 1 1 1 2 3 4 2 3 3 3 2 1 2 2 1 2 5 6 5 5 6 5 4 5 3 2 3 5 5 6 6
18 18 18 19 19 19 19 19 19 20 21 20 18 19 21 20 18 14 9 4 2 3 4 4 6 9 10 18 26 25 20 19 20 20 16 16 15 6 3 7 9 6 4 4 2 3 2 0 1 1 0 1 1 1 1 1 1 0 1 1 3 3 3 3 3 3 2 2 5 5 3 4 6 5 4 3 5 6 6 4 3 3 5 5 5 6 6
18 18 18 19 20 19 19 20 19 20 22 22 20 20 22 25 23 15 9 6 4 3 3 4 9 13 17 22 25 23 21 23 22 17 16 18 22 17 7 4 8 5 2 3 3 3 2 1 2 2 1 1 2 2 1 2 1 1 1 2 3 1 3 2 2 2 1 1 3 2 2 5 6 4 4 4 1 5 6 6 5 6 6 5 6 5 5
18 18 18 19 19 19 20 20 19 21 23 22 21 23 27 29 25 15 12 8 3 2 3 3 6 15 19 20 24 27 26 25 22 19 18 17 21 21 10 3 4 3 2 2 0 1 3 2 1 3 3 2 3 2 2 2 0 2 1 3 1 2 2 2 3 3 1 2 3 3 4 1 2 2 3 5 2 5 6 6 6 5 4 6 7 6 4
19 18 18 19 20 19 20 19 19 21 22 22 24 26 22 17 12 8 9 11 7 2 3 3 7 14 17 17 23 29 27 22 19 19 19 15 16 19 12 5 3 2 3 2 1 1 3 2 2 3 2 2 2 1 1 0 2 1 2 3 1 3 3 2 4 4 4 6 5 4 4 3 4 4 3 4 3 6 6 5 4 2 3 5 7 6 5
20 19 18 19 20 20 19 19 20 20 20 22 24 20 10 6 7 7 4 5 7 5 4 4 6 8 8 14 24 28 26 23 21 20 19 11 8 12 8 5 5 3 3 3 1 1 2 3 2 2 2 2 2 1 1 2 1 2 4 4 3 2 3 4 6 4 2 3 4 5 4 3 3 3 1 3 4 6 5 5 4 2 2 4 6 7 7
20 19 19 19 20 20 19 19 18 18 18 19 18 12 4 5 8 11 10 6 6 4 3 3 4 4 5 9 14 17 19 22 22 20 15 8 5 6 5 5 5 2 3 3 1 2 2 2 2 2 2 2 4 1 1 3 2 4 5 4 4 3 3 4 4 4 2 3 4 4 4 3 3 2 2 5 4 5 5 4 4 4 3 3 5 6 7
20 21 21 20 20 20 20 19 18 17 17 15 9 3 1 1 3 7 2 12 18 10 1 2 3 5 5 5 6 9 16 18 15 10 8 6 5 4 3 3 1 1 3 2 1 2 2 1 1 2 2 2 4 2 2 3 1 4 5 5 4 4 3 4 3 3 4 4 3 4 2 1 1 2 3 5 5 5 5 4 4 5 5 3 3 5 6
21 21 21 21 21 21 21 20 20 19 18 15 10 9 10 11 9 7 11 20 19 7 1 1 3 3 3 4 6 9 13 12 8 5 4 3 3 3 2 1 1 1 3 3 1 1 2 2 2 1 2 2 4 2 2 4 2 5 5 5 5 4 3 3 2 1 3 3 4 5 3 4 2 2 2 2 4 6 5 5 6 6 6 6 5 4 6
22 21 21 23 24 24 23 24 23 21 18 17 18 20 20 17 13 11 14 16 11 2 3 0 2 3 3 4 7 8 6 5 4 4 3 3 1 1 2 1 1 1 1 2 2 2 1 2 2 2 3 1 3 2 1 2 5 6 5 5 5 5 3 1 2 4 4 3 3 4 3 3 3 4 3 2 5 5 4 5 6 7 6 7 7 6 5
21 21 22 24 25 25 26 25 21 16 12 12 14 14 12 8 6 6 7 6 3 1 2 1 1 4 4 3 5 5 4 4 3 3 3 4 1 2 1 3 2 1 1 1 1 1 2 0 2 2 2 2 2 2 1 5 6 4 3 4 4 3 2 4 5 4 4 4 4 4 5 4 1 2 4 4 5 5 5 6 6 6 6 5 4 4 4
21 21 22 23 24 24 22 18 11 5 4 6 8 9 12 9 5 3 5 6 3 1 2 2 1 3 3 3 4 5 4 4 3 3 3 3 2 2 2 1 2 1 2 1 1 0 2 1 2 2 2 1 0 1 3 5 4 3 4 4 3 4 5 4 2 2 2 4 6 4 3 4 5 4 3 2 4 4 5 6 5 4 5 4 2 3 3
19 20 20 21 21 18 12 6 1 2 1 5 10 15 17 14 8 5 7 9 5 3 2 1 1 3 2 1 4 5 5 4 3 3 1 2 3 2 3 3 0 3 1 2 1 1 3 1 2 0 2 0 2 4 5 5 5 5 5 5 5 5 6 5 5 4 3 4 6 4 4 5 4 3 3 1 1 2 4 5 6 6 5 2 1 3 4
18 18 18 17 14 9 4 1 3 1 8 14 17 16 14 11 6 4 5 6 7 6 3 2 3 4 2 3 4 3 4 3 3 4 3 1 2 2 2 3 1 3 1 3 1 3 2 1 3 1 2 2 4 6 5 5 7 6 5 5 5 4 6 6 7 7 5 4 2 3 4 4 4 4 3 2 1 3 5 5 5 4 2 1 1 2 4
16 15 13 10 6 3 0 1 3 12 19 19 14 8 5 2 1 2 2 3 4 5 3 2 5 4 2 4 4 3 3 3 3 4 3 2 1 2 2 2 1 1 1 2 4 2 1 3 2 2 3 4 2 3 4 4 4 4 4 5 5 5 6 6 6 8 7 2 1 1 1 1 3 3 2 2 3 5 5 3 3 4 3 3 3 2 1
13 10 7 4 2 2 3 6 14 20 19 12 5 1 1 1 1 1 2 2 2 3 2 3 4 3 4 6 6 4 3 2 2 3 3 2 1 1 1 1 1 1 2 2 4 1 2 2 1 1 2 4 1 2 3 2 3 3 3 4 4 4 5 5 5 6 7 5 5 5 5 4 5 4 3 4 5 5 4 4 5 5 5 5 6 5 4
9 6 3 2 2 6 11 18 20 16 9 3 0 0 0 0 1 2 2 1 1 2 3 4 4 4 6 7 6 5 4 4 3 3 3 3 1 0 1 0 1 1 2 3 4 1 2 1 1 1 2 4 3 4 3 4 5 3 3 5 6 5 5 5 4 4 5 3 2 2 3 4 5 6 6 6 6 5 5 5 6 6 6 7 7 7 6
5 4 3 5 9 16 21 22 15 6 1 0 1 0 1 1 2 2 1 1 2 3 3 3 2 3 5 7 6 5 4 4 3 2 1 3 2 1 2 1 1 2 1 4 3 2 3 1 1 1 4 5 5 4 4 5 5 3 4 5 6 5 5 5 5 5 6 6 5 5 5 6 5 6 6 6 7 6 5 5 6 7 8 9 8 8 9
7 9 10 13 16 17 15 10 4 1 1 1 1 1 1 2 2 1 1 2 2 3 2 3 4 4 4 5 5 4 4 4 2 2 1 3 3 1 1 1 1 2 2 5 1 3 2 1 1 3 5 5 5 5 5 5 5 4 5 6 6 5 6 7 6 5 6 7 6 5 6 7 6 6 8 9 8 6 6 6 7 8 10 11 11 10 11
12 10 8 8 8 6 3 2 1 0 1 1 0 1 2 2 1 1 2 2 2 2 2 2 2 2 1 2 2 2 3 3 2 1 1 2 2 1 1 1 1 1 4 1 3 3 1 2 3 5 5 5 5 6 6 6 5 5 5 5 6 6 6 7 7 5 6 8 9 8 8 9 7 8 11 12 10 8 7 8 11 12 12 12 12 11 11
9 4 1 1 2 1 1 1 1 1 1 1 1 1 2 2 2 2 2 2 2 2 2 2 2 3 3 2 1 1 3 2 0 1 0 2 0 2 1 1 3 3 1 1 2 1 2 3 4 5 5 5 5 5 6 6 5 5 4 4 6 7 6 6 7 6 6 8 9 9 10 10 9 9 11 12 12 10 8 8 12 14 14 13 12 11 11
4 1 1 1 2 1 0 1 1 1 1 2 2 3 3 3 3 3 3 3 3 4 5 4 2 3 4 3 1 1 1 1 1 1 1 0 1 0 2 3 2 0 2 1 1 1 1 3 4 4 5 6 6 6 6 6 6 6 5 4 5 6 7 6 6 6 5 6 7 8 8 9 9 8 8 11 13 14 12 11 12 14 14 14 12 11 11
1 0 1 1 2 2 1 0 1 1 1 2 2 2 3 4 4 4 4 4 4 5 5 5 4 3 3 2 1 1 1 1 1 2 1 2 1 2 3 1 1 2 2 1 1 1 3 5 6 5 6 7 7 7 7 6 5 6 6 6 5 6 7 7 6 5 5 6 8 8 7 8 9 9 9 10 11 13 13 13 12 12 12 12 11 11 10
1 1 1 1 2 2 1 2 3 2 1 1 2 3 4 4 4 4 4 5 5 5 4 3 2 2 2 0 1 1 2 1 2 2 0 2 1 2 1 2 1 1 1 1 2 4 5 5 4 5 6 6 7 7 6 5 6 6 6 6 6 6 7 7 6 5 5 5 7 7 7 8 10 11 11 10 10 11 13 13 11 9 10 11 11 11 10
0 0 0 1 1 2 2 2 2 3 3 3 3 4 4 4 4 4 5 5 4 4 4 3 2 1 1 1 1 1 2 2 2 2 1 1 1 1 2 2 1 1 2 3 5 5 4 4 5 5 6 5 6 6 6 6 6 7 7 7 6 7 8 8 7 6 6 6 7 7 7 9 11 12 11 10 10 11 13 13 11 10 11 12 12 11 11
1 0 1 1 1 2 3 2 3 4 4 3 4 4 4 4 5 5 5 5 5 5 5 3 1 1 1 1 2 2 1 2 2 2 1 2 1 1 1 1 1 2 2 3 4 4 4 5 5 4 4 5 6 6 7 7 7 7 8 8 7 7 7 7 7 7 7 8 9 9 9 10 12 11 10 9 9 10 12 13 12 11 12 12 12 11 11
1 1 1 2 2 3 3 2 3 4 4 4 4 4 4 5 6 5 4 5 6 6 4 2 1 2 0 1 1 0 1 2 2 1 1 0 1 2 2 2 2 3 4 4 4 4 5 5 4 4 5 6 7 6 6 6 7 7 7 7 6 7 8 8 8 7 7 9 11 12 11 10 11 11 10 10 10 12 13 14 13 12 12 12 11 10 10
1 1 2 3 3 3 2 1 2 4 4 5 5 4 4 5 6 4 4 5 5 5 3 2 1 1 2 1 1 1 2 1 1 1 1 1 1 2 3 1 3 4 4 5 4 4 4 3 3 6 6 5 6 6 6 6 6 6 5 5 7 8 9 10 10 9 8 11 14 15 12 12 13 14 14 14 14 13 11 10 10 12 12 12 11 11 11
2 2 2 3 3 4 3 3 3 4 4 4 4 4 4 5 6 4 3 4 4 4 3 2 2 1 1 1 2 1 1 0 0 1 1 2 1 2 3 3 4 3 4 5 4 4 4 4 0 4 6 6 6 5 5 5 6 5 5 6 8 8 8 9 10 10 10 12 13 14 13 14 15 15 14 13 11 9 7 7 10 12 13 12 11 11 11
Wind_Direction
346 347 347 346 346 347 346 346 345 349 355 354 347 338 315 286 295 286 271 216 163 115 252 224 199 233 247 272 265 262 271 266 254 247 242 225 211 211 224 238 236 226 221 232 264 255 228 236 227 227 234 212 217 226 176 170 202 204 197 232 216 204 175 160 216 266 289 319 354 80 139 146 149 171 159 132 147 158 149 168 183 168 189 159 115 185 263
347 347 347 347 347 348 348 347 345 349 355 353 343 331 286 293 284 276 249 198 162 117 255 245 247 250 265 279 267 254 245 255 254 251 257 230 187 210 230 230 223 226 231 218 244 270 261 267 258 233 234 221 219 217 158 159 198 212 186 207 205 202 192 123 119 99 92 311 320 348 33 134 167 199 181 162 163 162 169 141 106 156 212 158 141 195 250
348 348 348 348 347 348 349 347 346 348 354 354 345 318 274 299 261 250 224 188 177 185 217 252 276 282 290 280 278 274 250 250 242 233 254 252 216 236 251 251 255 247 241 228 242 252 230 246 291 259 244 250 218 202 165 172 198 217 224 239 219 163 178 110 123 153 167 182 202 211 200 184 189 177 173 183 161 154 188 159 99 244 237 148 146 193 246
348 348 349 349 348 348 349 349 348 348 353 355 344 312 282 330 309 304 286 189 197 232 209 226 262 284 300 288 280 271 263 274 238 212 239 251 237 258 259 260 276 246 229 241 254 249 220 216 265 283 274 284 207 169 167 184 201 219 243 267 330 103 122 118 133 157 177 187 214 206 158 160 195 159 142 239 179 138 118 113 147 191 192 184 208 176 141
349 349 349 350 349 349 349 350 350 349 353 357 346 307 244 336 332 322 324 293 244 256 209 202 240 246 259 307 319 304 288 298 261 174 215 232 212 238 248 231 254 255 250 259 260 275 265 238 253 274 270 271 225 151 157 190 210 217 241 273 351 84 353 307 141 169 194 192 221 204 139 135 167 154 148 277 189 123 106 144 192 162 140 233 246 164 139
351 349 350 351 351 351 351 352 352 351 355 2 1 327 273 344 320 295 314 296 297 316 305 290 293 281 207 230 316 308 293 304 304 184 243 249 195 204 270 240 242 257 267 262 273 303 321 307 280 283 290 291 299 127 150 199 216 214 239 288 48 101 328 274 201 232 234 157 109 121 132 135 144 149 171 237 178 134 134 185 190 148 162 215 215 173 158
352 350 351 351 351 352 352 353 354 353 356 7 24 15 331 335 308 301 313 291 292 298 294 301 312 308 254 240 275 285 298 311 312 222 206 312 212 177 203 279 263 272 319 52 319 299 327 321 302 327 340 323 339 121 159 209 206 192 216 267 67 111 250 269 239 341 345 25 61 66 90 130 152 159 177 186 169 153 154 178 172 160 194 202 164 148 154
353 351 351 351 352 353 353 354 356 356 359 9 29 33 14 356 308 313 314 294 290 287 295 314 320 315 296 276 266 260 283 300 308 285 161 36 248 177 203 287 292 331 2 25 218 241 237 257 267 299 351 335 319 123 141 176 165 151 202 278 24 75 241 276 15 50 347 328 53 52 51 121 174 211 214 172 132 122 141 153 155 150 126 75 133 125 88
354 352 352 351 352 353 353 355 356 359 4 9 15 14 4 329 295 303 311 304 308 315 322 325 318 316 345 295 292 297 279 283 308 297 222 188 204 201 219 315 327 348 351 339 278 276 265 246 253 254 251 268 272 260 153 153 156 171 177 48 21 58 249 314 24 63 323 310 57 47 32 82 149 239 246 201 139 160 199 184 190 165 119 79 113 133 145
354 353 352 352 352 352 353 356 356 359 6 10 2 341 344 325 299 303 305 288 308 330 326 326 328 327 322 314 317 306 276 278 306 324 279 217 222 227 158 65 10 348 337 316 292 285 273 262 265 263 239 227 262 269 210 155 149 158 139 82 353 125 90 344 45 86 300 301 62 65 48 77 162 247 231 192 166 181 177 219 234 185 135 132 172 180 174
352 353 353 352 352 352 353 355 356 358 3 6 355 327 331 330 311 308 302 278 304 341 328 330 347 330 316 322 329 326 302 301 267 166 282 286 283 256 127 89 29 324 287 275 271 273 271 267 267 268 260 242 250 252 192 147 141 147 134 109 284 249 121 184 137 109 285 302 35 62 58 126 228 244 195 167 162 157 154 179 237 213 139 133 160 158 155
349 352 353 352 351 352 352 353 355 357 358 357 348 329 330 333 316 299 314 300 307 333 333 321 316 307 315 326 333 339 335 321 290 223 234 272 299 308 127 118 116 263 255 254 267 280 283 282 279 273 262 236 222 183 125 127 143 156 147 140 160 196 130 141 36 110 139 334 48 72 191 227 246 280 257 207 177 153 145 126 260 233 144 121 125 140 164
347 350 352 351 350 350 350 351 353 354 354 352 346 333 331 335 322 290 322 304 293 322 329 308 298 303 321 330 332 333 332 322 306 282 250 250 285 308 200 159 184 234 249 255 275 293 297 301 314 324 320 340 115 115 109 119 184 160 145 139 140 142 131 94 39 99 114 38 75 140 234 260 290 314 298 237 119 110 121 95 351 290 170 144 146 162 178
343 345 348 350 350 348 348 350 350 351 351 349 344 335 333 337 329 296 317 308 289 306 310 301 309 326 332 331 331 332 337 346 342 327 300 262 257 272 265 233 244 260 245 246 287 327 6 343 358 21 2 20 82 123 83 24 142 145 129 124 126 127 121 75 34 79 129 110 98 217 282 313 320 319 292 195 145 142 143 134 300 293 264 171 162 167 172
340 341 345 348 349 348 346 347 349 349 349 348 342 336 338 343 334 308 296 296 303 304 288 289 329 332 326 322 329 334 341 355 352 324 303 298 273 274 278 289 306 302 266 206 310 3 39 26 33 41 10 32 124 173 331 6 332 204 111 107 95 96 114 126 94 35 88 98 68 10 24 274 257 256 268 260 208 179 145 111 327 283 300 283 168 163 158
338 339 342 346 348 347 344 345 347 347 347 348 343 337 342 355 351 328 308 292 298 292 272 288 314 320 315 310 321 331 333 340 341 332 333 341 333 319 316 322 329 332 346 44 20 15 37 40 60 90 108 239 137 154 316 15 344 334 27 76 72 63 72 103 93 36 34 98 107 157 181 229 243 249 271 273 216 158 114 80 307 269 293 342 165 162 151
337 337 340 343 346 347 344 343 345 346 346 348 342 333 336 358 357 336 314 281 282 276 270 284 309 321 322 314 318 330 331 330 346 359 330 326 320 319 330 334 336 350 12 30 25 24 38 30 20 60 54 303 101 138 246 22 51 331 348 41 58 49 34 55 73 19 14 103 114 204 205 247 262 265 272 260 194 95 87 116 255 265 281 283 158 162 160
335 336 337 341 345 345 343 342 343 344 344 346 340 330 331 352 358 343 316 278 302 278 254 304 339 314 287 293 307 320 320 317 333 317 282 292 305 313 327 339 341 351 9 27 32 30 35 22 359 39 22 329 23 105 222 320 172 234 340 63 63 45 34 65 124 150 105 111 124 262 260 266 277 277 264 245 108 68 89 201 229 260 282 266 156 159 166
333 335 336 338 342 343 342 341 342 342 342 344 342 332 329 349 10 3 340 294 296 276 275 308 314 267 248 273 285 293 305 297 294 310 319 329 316 309 320 12 8 349 360 25 34 40 43 10 321 44 46 340 351 60 12 280 248 205 128 109 109 100 41 52 143 158 163 128 126 269 272 254 258 277 279 305 86 100 216 226 223 240 271 276 157 157 167
332 334 334 335 338 340 342 341 339 340 339 342 343 331 324 336 5 360 344 312 290 291 283 279 255 234 251 288 279 283 310 304 291 323 333 310 313 336 7 21 352 346 2 28 24 17 36 3 322 11 45 333 318 50 3 313 305 309 131 143 164 159 155 244 208 184 143 80 77 85 221 242 277 322 352 43 104 193 216 245 293 250 255 261 159 160 167
329 331 332 335 335 335 339 340 338 337 336 339 341 329 318 320 331 337 333 312 288 292 284 275 269 270 276 276 267 264 261 252 256 279 313 297 309 37 69 285 303 348 2 29 20 340 357 5 328 346 19 327 333 43 23 339 323 318 336 124 115 130 160 196 220 192 128 113 182 202 210 248 283 21 137 200 223 201 174 160 268 276 262 219 155 165 172
325 328 330 333 332 331 334 336 338 337 333 334 337 326 311 312 320 330 330 306 265 246 267 280 289 288 283 278 271 259 249 250 257 252 230 287 316 97 147 227 262 254 296 47 83 341 338 1 359 8 9 337 348 354 54 73 350 316 337 66 93 228 205 174 161 178 154 164 199 220 235 268 311 38 144 248 296 257 157 151 164 289 290 189 150 159 170
324 326 327 329 330 330 329 331 335 336 332 332 332 323 311 309 315 328 331 304 264 256 267 275 287 289 284 287 292 285 274 269 267 256 228 213 292 307 182 185 258 297 282 210 150 173 289 299 35 55 21 311 354 343 333 40 21 305 333 13 263 252 247 147 115 81 66 112 139 12 349 323 356 11 348 2 25 13 74 91 74 6 5 73 124 139 148
322 322 323 326 329 328 327 328 331 331 330 329 324 316 310 305 309 326 331 307 284 295 280 275 289 284 278 306 316 313 308 299 294 285 254 214 198 328 288 201 158 77 276 245 211 126 84 286 20 56 24 291 342 3 219 21 344 305 6 352 304 299 346 65 87 79 78 44 320 324 331 341 12 15 354 13 32 17 22 50 34 4 57 78 101 110 108
318 319 321 324 327 328 327 326 327 329 328 326 321 315 308 300 301 315 317 293 292 318 311 304 280 271 295 314 311 308 310 311 314 313 287 234 210 217 251 194 178 176 212 218 172 97 80 327 65 77 27 273 267 252 191 195 252 269 71 10 283 313 9 52 61 61 113 210 270 283 306 343 11 25 359 357 34 27 14 19 21 42 67 76 87 97 100
315 315 319 323 327 328 326 324 326 327 326 324 320 314 304 297 296 291 269 259 264 256 269 292 280 291 319 323 311 308 315 314 310 306 290 256 232 227 231 189 186 193 178 145 136 138 153 136 114 144 217 226 200 208 241 236 222 96 74 226 230 305 1 36 71 52 64 223 263 268 35 11 4 5 325 296 39 51 21 7 32 65 83 81 69 81 120
313 312 317 323 326 326 325 324 324 324 324 324 319 311 303 298 295 278 242 228 224 272 271 252 282 306 316 310 303 309 318 319 315 309 301 277 243 231 228 193 192 194 136 132 204 105 118 111 154 181 202 209 189 201 257 261 98 75 297 268 264 61 12 22 89 97 150 214 212 181 136 122 267 287 312 306 346 56 37 13 28 59 115 114 83 63 88
313 312 316 320 324 325 324 323 323 322 324 324 319 317 314 307 297 272 235 220 209 248 298 261 282 305 308 301 306 316 320 320 320 317 312 292 241 222 220 203 190 171 136 163 270 71 130 175 203 187 187 181 176 226 279 318 33 24 257 266 265 137 172 177 137 157 216 225 209 178 140 159 226 254 311 332 21 62 51 23 26 66 161 143 113 94 96
312 312 314 317 321 323 322 321 322 323 324 326 324 328 350 49 86 96 124 200 217 240 284 299 288 292 302 305 308 314 319 323 325 323 318 303 220 199 204 198 193 181 131 135 132 151 196 218 209 200 205 156 154 247 237 137 152 258 240 244 253 203 194 184 161 164 238 229 189 172 151 160 216 239 321 12 48 77 65 26 15 41 128 147 136 125 129
310 309 311 314 317 320 320 319 319 320 323 328 329 331 8 78 98 108 99 51 356 317 277 294 295 287 298 300 296 300 313 322 325 321 313 291 216 198 201 195 196 166 102 101 128 183 217 268 284 270 272 117 119 167 200 145 207 261 248 243 250 246 241 226 187 163 185 199 179 164 163 184 212 192 60 26 30 78 78 33 12 32 60 135 148 135 134
308 307 308 309 312 317 318 313 312 314 315 318 329 353 99 126 149 151 145 339 341 345 316 253 287 296 299 283 265 287 303 305 305 302 285 256 239 236 212 188 205 127 123 145 217 191 192 232 279 291 296 99 111 133 155 134 226 273 255 237 233 228 242 254 232 174 167 171 125 88 83 312 323 43 35 6 11 57 68 30 8 27 45 82 135 139 146
307 306 306 309 312 315 313 310 310 309 302 294 279 257 259 272 267 249 281 308 321 334 119 291 310 305 300 287 275 286 291 287 287 302 290 256 257 279 274 226 220 171 135 130 154 246 223 188 172 262 279 117 106 95 107 122 183 243 231 214 226 243 253 252 237 112 106 120 106 78 27 347 17 130 171 332 22 49 47 14 354 3 29 49 51 70 125
305 305 310 317 319 318 314 314 312 303 293 284 273 269 275 284 288 289 293 299 302 261 160 168 309 268 268 299 302 300 302 303 321 339 314 265 227 295 315 336 103 131 93 107 160 239 242 139 140 268 291 63 96 90 105 186 226 233 211 197 223 245 248 195 103 69 55 73 115 134 179 223 210 180 169 86 48 42 32 12 355 356 20 45 46 52 97
304 310 319 323 322 319 316 315 309 295 280 269 267 282 307 317 309 302 281 255 241 237 224 189 274 273 283 323 314 308 338 350 330 325 306 285 217 159 270 332 21 52 264 197 162 277 304 206 163 218 281 336 62 97 244 262 256 229 186 205 224 207 107 76 77 85 85 80 92 131 169 176 131 77 73 48 22 11 15 17 10 7 16 36 57 70 93
307 318 324 322 319 318 317 314 302 276 240 236 257 312 341 335 310 285 239 214 171 48 277 216 208 269 302 337 301 292 332 347 294 250 251 276 279 149 152 28 25 297 241 215 98 333 270 209 158 185 260 301 59 206 240 250 241 185 172 212 216 144 114 98 100 140 139 112 112 122 119 96 87 94 99 42 357 4 21 17 21 37 30 23 67 94 105
317 326 325 321 319 319 318 314 257 149 179 271 292 314 320 309 289 250 233 236 231 218 241 284 244 225 231 279 274 294 343 344 297 279 278 298 317 352 89 98 154 254 255 70 67 262 252 185 115 17 296 254 195 232 225 194 178 175 183 211 216 173 150 155 161 163 151 127 125 115 87 97 131 167 161 162 320 30 47 25 21 39 35 4 170 141 123
328 329 324 324 327 325 315 137 116 7 313 306 306 305 298 286 265 215 212 230 230 217 213 297 263 235 220 244 259 307 344 323 303 325 329 307 300 322 56 91 215 260 9 38 260 230 239 65 91 110 254 229 216 240 236 180 165 168 173 194 206 174 149 151 148 133 113 93 87 61 63 104 167 189 176 193 303 34 59 45 25 38 47 327 239 188 157
331 329 327 333 341 343 329 141 331 320 315 312 312 303 280 251 159 179 195 201 212 208 185 223 247 241 223 242 257 298 313 302 347 354 308 272 320 331 17 88 203 244 28 295 254 216 63 18 68 133 252 268 246 245 253 213 170 149 144 165 180 166 151 152 143 127 116 104 277 274 80 121 212 222 183 123 49 54 77 81 59 63 75 68 57 60 123
334 334 333 334 318 259 256 293 312 315 312 307 305 278 251 86 93 221 233 191 194 204 189 212 231 209 193 229 262 278 258 264 342 331 275 265 333 316 333 14 297 53 65 294 281 8 55 326 332 106 280 288 260 198 225 196 98 73 82 112 129 142 146 146 146 145 150 173 207 203 181 178 193 189 144 107 88 77 77 70 57 52 55 72 84 80 59
341 339 325 300 272 275 287 301 311 314 308 292 284 106 173 200 194 213 212 193 218 229 206 206 223 207 193 213 249 261 225 198 194 220 242 258 262 200 79 343 263 90 84 275 281 64 98 279 336 75 250 258 235 204 182 107 91 83 78 85 87 98 117 124 131 140 136 132 143 145 134 142 150 145 136 128 116 99 81 70 66 62 60 65 76 85 92
353 350 309 286 290 295 300 305 309 308 280 127 338 94 191 247 248 227 204 216 242 244 211 187 220 241 213 203 222 248 242 223 202 164 178 270 279 77 92 254 270 70 91 254 259 81 88 75 336 252 235 229 212 191 150 114 109 105 85 80 79 78 78 74 69 79 94 95 84 81 93 102 106 112 121 125 120 116 108 89 74 72 73 74 76 89 110
302 298 293 293 295 297 300 304 299 226 111 39 349 247 246 247 244 248 249 226 231 251 241 198 204 225 216 192 192 216 236 235 219 106 94 270 274 116 148 261 22 71 229 245 254 66 65 35 284 261 245 223 203 180 151 139 143 137 112 98 88 77 74 75 67 62 86 104 102 96 103 105 101 107 116 115 111 111 112 105 93 86 89 98 104 107 114
295 290 289 298 302 296 287 282 252 166 61 65 116 275 283 270 257 267 260 247 247 266 261 244 243 278 276 185 191 237 257 244 209 110 138 255 270 72 73 24 49 197 233 257 62 75 142 203 225 236 229 213 201 184 162 153 152 144 133 120 102 92 95 102 97 80 80 97 107 114 114 110 110 117 118 113 107 101 100 109 114 112 109 113 117 122 129
314 307 266 302 303 256 237 289 285 123 110 188 184 194 245 257 266 263 254 266 294 291 273 284 312 306 290 272 234 264 281 280 7 69 249 249 262 70 82 231 235 233 247 39 58 194 221 225 235 232 210 192 193 183 163 152 143 141 148 139 111 100 98 103 103 94 83 88 100 111 114 113 117 122 119 117 118 116 112 118 123 123 123 126 128 133 143
347 13 76 1 314 274 156 313 280 206 215 224 201 186 207 230 249 258 245 249 283 296 291 288 276 255 264 282 297 264 288 333 19 281 254 210 85 108 211 223 233 31 49 38 358 325 287 270 259 230 184 177 186 182 167 161 160 155 154 146 124 115 117 120 117 112 111 110 111 114 117 119 121 122 124 132 135 134 135 142 142 135 132 133 136 144 156
358 238 98 36 294 270 232 252 249 232 211 211 208 215 231 240 253 268 269 266 278 286 283 274 260 251 264 304 346 325 333 31 232 245 213 97 109 236 227 195 69 51 49 8 311 248 239 250 250 221 185 178 182 179 172 171 170 157 151 160 161 144 134 136 136 135 140 135 125 124 130 135 134 134 138 144 147 146 146 150 153 151 144 140 141 150 159
269 266 108 116 279 282 250 216 233 244 275 299 280 276 281 278 276 281 283 276 267 263 261 268 279 279 268 269 38 343 321 310 258 260 216 109 168 268 347 67 86 151 134 182 245 244 244 247 238 216 202 189 179 174 172 173 175 167 161 170 174 153 137 141 147 149 151 141 132 137 149 146 139 138 140 144 151 155 152 153 161 169 162 152 150 155 160
219 298 132 178 238 246 229 246 292 307 310 317 312 303 309 320 317 306 301 298 296 291 280 278 301 341 319 344 64 29 303 299 281 266 247 116 116 346 24 35 285 247 181 189 211 226 240 242 228 216 207 187 168 166 169 173 177 173 167 172 178 165 153 155 162 162 155 141 135 147 160 151 142 142 147 153 160 160 157 162 176 182 169 159 159 163 165
189 239 259 239 273 265 249 273 321 317 303 312 321 322 333 339 321 306 312 326 326 315 292 259 173 127 291 316 75 92 289 289 280 276 342 56 94 177 123 122 257 290 275 227 216 224 242 240 225 207 190 172 159 163 172 176 177 176 175 178 182 170 156 159 168 163 147 137 143 157 162 155 148 148 151 156 160 160 161 172 187 188 177 172 174 174 171
198 222 228 217 251 287 291 302 307 298 307 333 335 329 337 330 308 306 333 337 320 315 323 354 81 99 127 320 44 91 244 258 268 291 345 15 200 177 106 106 222 252 260 249 246 262 266 243 189 152 154 158 153 156 167 172 176 182 183 179 172 159 149 150 154 147 131 134 148 157 158 155 152 154 158 163 165 165 171 182 190 188 183 184 189 188 185
208 249 238 217 221 250 282 305 286 278 297 314 307 302 315 308 290 297 341 338 321 332 359 351 302 63 76 51 292 241 218 229 270 288 281 267 222 102 92 123 227 244 259 268 276 298 301 273 158 130 130 145 155 162 166 166 170 178 176 159 149 145 143 146 151 146 135 138 148 154 159 165 166 165 167 167 160 156 164 183 188 184 185 191 198 199 199
222 238 250 245 231 229 241 261 266 260 267 276 276 286 305 294 277 283 349 360 341 339 338 298 277 18 77 214 250 253 218 220 340 351 308 301 331 108 141 196 232 259 291 308 332 360 352 333 14 131 143 157 165 168 162 151 145 144 143 142 144 144 145 155 162 152 136 136 147 157 168 174 172 167 162 158 150 145 158 183 187 186 188 194 203 209 211
Height
829 826 823 820 817 814 811 807 803 800 796 791 788 787 784 783 780 773 771 772 771 774 775 773 774 772 765 761 759 756 754 752 750 747 745 746 747 746 744 743 741 739 737 736 734 729 724 717 712 709 706 702 698 692 693 698 700 701 706 704 698 701 708 709 704 698 693 687 684 685 684 688 696 697 696 701 705 705 707 715 716 716 721 723 729 737 731
829 826 823 820 817 814 811 807 804 800 798 794 791 788 784 782 778 773 771 771 771 774 773 769 768 766 762 761 758 754 752 750 748 746 743 742 744 744 740 738 738 736 733 734 731 727 723 716 707 704 702 696 691 691 692 696 700 699 700 697 694 700 707 707 708 709 707 703 700 697 693 692 696 696 694 696 701 700 700 706 712 718 719 718 725 735 731
828 826 823 820 817 814 811 808 804 800 798 795 791 788 785 781 777 772 771 771 771 772 771 769 768 764 763 763 758 754 751 747 744 744 742 739 739 740 736 733 734 733 731 731 727 723 723 719 708 701 698 691 687 689 692 694 696 694 693 689 687 695 703 702 707 716 719 719 715 708 701 697 695 694 693 695 698 700 703 707 714 722 724 719 719 727 732
828 825 823 820 817 814 811 807 803 799 796 793 790 788 785 782 779 774 770 769 770 771 770 771 770 766 766 762 755 754 752 744 740 741 741 739 738 737 734 732 731 730 729 729 723 716 714 714 707 701 699 693 685 685 688 690 691 691 691 688 686 692 698 698 702 706 708 709 704 697 695 697 698 696 695 697 699 700 706 712 715 718 720 720 718 721 731
828 825 823 820 817 814 811 808 804 799 795 792 789 787 785 784 783 780 776 771 769 768 768 770 769 767 767 761 754 754 753 744 739 739 738 736 736 736 733 732 732 727 725 725 719 713 710 708 705 701 698 692 683 681 685 688 689 690 691 689 689 695 699 698 699 699 699 698 694 689 689 693 696 696 695 698 700 700 705 710 711 713 718 723 721 719 728
828 825 823 820 817 815 811 808 805 800 795 791 789 788 786 785 784 782 780 777 772 769 767 767 766 765 765 762 756 755 752 745 739 738 736 733 733 734 732 731 730 725 722 721 718 714 711 706 702 698 694 691 686 684 688 689 688 691 693 690 690 698 703 699 698 698 695 693 690 688 687 688 691 693 695 699 701 700 702 704 706 710 713 715 717 720 724
827 825 823 820 817 815 812 809 806 801 797 792 791 790 789 788 786 781 780 780 776 771 767 764 762 761 761 761 758 754 750 744 737 733 734 733 733 735 733 726 724 721 719 719 720 717 714 711 706 700 698 697 691 690 695 693 688 691 695 693 693 700 704 701 697 694 691 691 690 689 689 690 690 691 694 699 702 700 698 700 704 706 706 707 713 721 723
827 825 823 820 818 815 813 810 807 803 799 794 793 794 793 794 792 786 782 779 774 769 765 763 760 759 760 758 753 751 748 743 738 733 731 732 731 731 730 723 720 720 719 718 719 715 713 717 713 705 707 706 694 690 694 693 692 693 694 695 696 700 705 703 696 694 695 694 691 690 693 695 694 693 694 698 703 703 701 703 705 704 708 716 717 720 725
827 825 823 820 818 816 813 811 808 805 801 798 797 798 797 797 795 792 788 780 772 766 764 763 760 757 759 757 749 746 745 741 739 735 727 725 725 723 724 723 720 718 717 715 715 710 709 713 710 704 709 708 696 689 687 687 694 698 696 697 700 702 705 703 698 700 701 697 693 693 694 696 698 697 697 701 704 703 700 701 701 697 706 724 726 721 725
827 825 823 820 818 816 814 812 809 807 804 802 802 800 799 798 794 792 791 783 772 768 767 764 760 756 756 755 747 743 742 738 738 734 723 719 720 719 720 723 722 721 718 713 709 706 704 702 698 696 698 699 694 689 683 681 689 697 699 701 705 705 704 703 703 705 705 701 696 693 697 705 708 704 702 705 705 701 699 698 697 695 702 718 723 716 717
827 825 823 820 818 816 814 812 810 808 806 805 804 802 800 799 795 791 791 783 773 770 770 766 762 758 754 749 744 741 739 736 734 733 726 720 717 716 717 722 725 724 718 708 701 699 696 692 690 688 690 693 692 686 680 678 682 688 695 704 711 709 704 705 706 705 709 708 697 696 710 720 714 704 702 704 701 698 698 697 697 698 700 705 709 710 713
827 825 823 820 818 816 814 813 811 809 808 806 805 803 801 800 798 793 791 786 775 771 771 767 764 762 755 748 743 739 736 734 730 729 728 722 717 715 718 724 728 721 709 701 698 696 692 688 684 681 683 686 684 678 676 679 682 684 689 698 708 709 704 705 706 706 711 711 704 714 728 722 707 700 700 701 701 697 694 693 696 701 700 698 703 711 714
826 824 822 820 818 816 814 813 811 810 809 806 805 803 800 800 799 794 791 788 780 774 774 769 762 760 756 750 744 738 734 732 727 725 724 721 717 715 715 719 721 714 703 699 698 696 694 690 684 680 679 678 677 677 679 681 683 685 685 688 695 702 704 705 707 711 715 715 716 726 729 714 703 702 699 698 701 699 697 699 701 702 701 697 701 708 710
825 824 822 820 818 816 814 813 811 809 808 806 804 802 800 799 799 796 793 790 782 775 774 769 759 756 756 751 745 739 734 730 726 723 721 720 718 715 712 710 709 705 701 700 698 695 696 695 690 686 684 683 685 687 685 682 683 685 684 683 685 693 700 704 709 715 719 721 722 723 721 714 708 703 697 695 696 695 697 704 705 703 703 701 700 704 707
825 823 821 820 817 816 814 812 811 809 807 806 804 801 799 798 798 797 794 792 786 776 771 767 762 760 758 752 747 742 737 733 730 725 721 719 717 713 709 705 702 698 697 698 698 697 698 698 697 696 695 695 696 696 691 688 688 685 683 683 684 687 696 704 712 717 719 722 724 726 727 723 711 702 697 694 693 691 691 700 705 703 703 702 700 703 708
824 822 820 819 817 815 814 812 810 809 807 806 803 800 798 797 797 796 793 792 789 777 767 764 764 764 759 752 747 744 741 738 735 728 722 719 717 712 707 702 700 697 695 696 699 700 700 701 701 701 701 699 698 699 698 696 695 689 683 683 687 693 698 702 709 716 717 718 724 729 728 719 707 701 695 692 693 690 689 703 711 703 699 702 702 704 709
823 821 820 818 817 815 813 811 810 808 806 805 803 800 798 797 797 797 794 792 789 777 765 763 765 765 760 753 747 745 743 740 738 735 731 726 721 716 710 705 702 699 697 699 702 704 704 706 704 703 704 701 697 699 702 701 701 698 691 689 693 700 703 705 710 717 720 720 723 725 720 711 704 701 697 694 692 688 697 717 719 701 696 702 702 704 709
822 820 819 817 816 814 813 811 809 807 806 805 803 800 798 797 796 796 793 791 789 777 763 761 766 766 762 757 752 748 745 742 742 741 736 730 725 720 715 712 709 705 703 705 709 711 711 713 713 709 707 704 701 704 707 706 705 704 700 700 704 705 707 712 715 717 720 721 723 722 716 708 704 702 699 694 692 697 711 721 711 698 696 699 699 703 708
821 819 818 816 815 814 812 810 809 807 805 804 802 799 797 796 796 796 794 792 790 778 762 759 765 764 759 756 753 749 747 745 743 741 736 731 725 719 716 717 715 714 713 712 713 716 718 718 719 717 714 711 709 710 713 710 706 704 701 703 709 710 712 717 718 716 718 720 721 723 718 708 702 700 696 693 699 711 716 707 699 698 697 694 696 701 704
820 818 817 815 814 813 811 809 808 806 804 803 802 799 796 795 795 796 795 793 792 781 763 756 760 759 755 755 754 752 750 746 742 740 739 735 726 719 721 725 723 721 723 720 718 721 723 723 722 720 719 718 714 713 715 712 708 706 705 704 707 709 713 717 716 715 719 721 723 725 720 708 701 699 696 697 703 709 705 697 697 700 696 693 696 698 699
818 817 815 814 813 811 811 808 807 805 803 802 802 799 795 794 794 795 794 793 794 785 764 753 755 755 753 752 751 750 751 747 741 741 740 735 728 725 730 735 732 729 730 729 726 726 725 726 725 722 722 722 718 717 721 718 711 707 705 705 707 710 712 714 713 712 716 719 721 720 714 707 702 701 700 701 701 699 697 698 699 699 696 695 695 695 696
817 815 814 813 811 810 809 807 806 805 802 801 801 798 795 793 791 792 792 790 790 783 765 753 753 751 747 745 743 743 745 741 736 738 740 737 732 730 731 733 732 732 732 731 730 729 727 727 727 726 726 726 723 721 723 721 716 712 708 707 709 711 710 709 710 712 712 713 714 713 709 707 705 702 700 700 699 697 697 698 698 698 696 694 694 695 696
815 813 812 811 809 808 807 806 804 803 801 800 799 797 795 792 789 790 789 786 783 776 762 754 753 746 738 737 737 737 739 737 732 732 736 737 734 731 730 731 731 732 731 729 729 729 729 728 728 728 728 729 729 727 723 721 720 717 713 709 709 710 709 708 709 711 711 711 711 709 708 706 703 701 702 701 699 698 697 696 696 697 695 694 694 695 696
813 812 810 809 808 807 805 804 803 801 800 799 798 796 794 791 789 789 787 785 783 775 761 754 751 745 737 734 733 732 732 732 730 728 729 732 732 730 728 728 728 730 730 728 727 728 728 728 728 729 729 729 729 728 724 722 721 718 715 714 712 709 708 708 709 710 713 715 713 709 708 706 702 701 702 701 699 699 698 697 696 696 695 695 696 696 699
811 810 809 807 806 805 803 802 801 799 798 797 795 794 791 789 788 789 788 786 785 781 772 761 749 740 738 736 732 730 729 727 726 726 724 725 727 725 722 720 722 725 725 724 725 727 728 729 729 730 731 730 729 727 724 722 721 718 717 718 717 711 709 709 711 712 715 717 715 712 710 709 705 702 704 704 701 700 699 699 698 697 697 697 698 699 701
809 807 806 805 804 803 802 800 799 797 796 794 793 791 789 785 785 787 787 786 785 782 779 769 749 735 737 736 729 726 727 725 723 722 721 720 720 719 718 717 717 719 720 721 724 725 726 727 728 730 731 729 728 727 723 719 719 718 717 717 715 713 712 713 715 717 717 717 716 714 713 712 708 706 707 706 703 701 700 701 700 698 699 699 700 702 703
806 805 804 803 802 801 799 798 797 795 794 792 790 788 784 781 780 782 783 784 782 777 775 770 753 739 738 735 727 723 723 721 720 719 716 715 715 715 716 716 716 718 719 721 723 724 725 727 726 726 727 725 724 724 721 717 717 718 717 715 713 713 716 716 716 717 717 714 712 712 713 714 712 709 707 705 703 701 701 702 701 701 701 701 702 704 705
804 803 802 801 800 799 797 796 795 793 792 790 787 783 780 776 776 777 778 780 780 777 774 771 760 747 739 730 722 721 721 718 718 716 713 711 712 713 713 714 715 716 717 719 721 722 723 723 721 720 721 720 720 721 721 720 720 720 717 714 712 712 714 714 712 713 712 709 709 711 712 712 711 709 707 705 703 702 703 704 703 703 702 702 703 704 706
802 801 800 799 798 797 796 795 793 792 790 789 784 781 778 775 775 776 777 779 781 779 776 771 762 751 741 731 722 719 718 716 715 714 712 710 710 710 712 713 714 714 715 717 719 719 719 717 716 715 714 713 716 719 720 722 723 719 715 712 710 710 711 710 709 710 709 707 708 711 710 710 710 709 707 705 703 703 704 705 705 704 703 704 704 704 706
800 798 797 796 796 795 793 792 792 790 789 788 785 782 779 777 777 777 777 779 780 779 777 774 765 752 742 735 727 721 717 715 714 713 711 710 709 709 710 711 711 712 714 715 716 717 717 715 713 712 709 709 713 717 719 721 721 716 711 710 710 710 710 709 707 707 706 705 707 708 709 709 709 708 707 706 705 704 704 706 706 705 705 705 705 705 707
797 796 795 794 793 792 791 790 790 789 788 788 787 785 780 777 777 776 776 777 778 777 777 775 767 755 745 736 728 723 719 716 714 713 711 709 708 707 707 708 709 710 712 713 714 715 715 714 712 711 709 709 712 715 716 719 719 714 709 709 710 709 708 707 706 704 704 704 706 708 709 710 709 708 708 707 706 705 705 706 706 706 706 706 706 707 707
795 793 792 791 790 789 788 787 786 787 786 785 786 784 778 774 775 776 775 776 777 777 778 775 768 759 749 736 727 722 719 715 713 711 710 708 707 706 706 707 708 708 709 711 714 713 712 712 712 711 710 709 711 713 715 717 716 711 707 707 708 707 707 707 706 705 705 705 707 709 711 710 709 709 709 708 707 706 706 706 707 707 707 707 707 707 708
793 791 789 788 786 785 784 783 783 783 782 781 780 778 774 772 773 773 774 776 776 776 777 777 772 764 753 740 728 721 717 716 714 713 710 708 707 707 707 706 707 708 708 710 712 712 711 711 712 711 710 710 711 713 715 714 710 707 705 706 706 706 706 706 706 706 706 706 707 709 710 711 710 709 709 708 708 708 708 708 708 707 707 708 708 709 709
790 788 786 785 783 781 780 778 778 778 777 778 777 774 771 771 771 771 773 775 775 776 776 775 773 765 754 743 733 723 718 718 719 716 713 708 706 707 708 708 708 709 709 709 711 711 710 710 710 710 711 712 713 715 714 710 707 706 705 705 705 706 707 708 708 707 707 707 707 707 708 709 709 709 709 709 709 709 709 709 709 709 709 710 710 710 711
788 786 784 782 780 778 776 774 774 774 775 775 774 771 771 771 771 771 772 772 773 775 774 772 770 765 756 749 739 726 719 720 721 717 714 709 705 706 709 710 711 711 709 709 711 712 710 709 709 711 713 714 715 715 712 708 706 706 705 705 706 707 707 709 710 709 709 708 708 709 709 710 710 710 710 710 711 711 711 711 711 711 711 712 712 712 713
785 783 781 779 777 775 773 772 772 773 774 774 772 770 770 770 769 770 771 770 771 773 772 769 766 762 757 752 743 729 721 721 721 716 713 710 707 706 708 709 711 711 709 710 712 712 709 708 709 712 715 714 712 710 707 705 705 705 704 705 706 705 705 706 708 710 710 709 708 709 710 711 711 712 712 712 712 712 712 712 712 712 712 712 713 714 714
783 781 779 777 775 773 772 772 772 772 772 771 769 768 768 768 768 769 770 770 770 770 770 770 766 759 754 751 744 732 726 725 723 718 715 712 710 709 708 709 711 711 710 711 711 708 706 707 709 712 713 711 707 706 705 704 704 703 703 704 705 704 704 705 707 708 710 710 710 711 712 712 712 713 713 712 713 714 714 715 715 715 714 714 715 716 715
782 780 778 777 775 774 773 772 771 771 770 768 767 766 765 766 767 768 769 769 768 766 767 768 764 756 753 751 744 733 728 728 727 724 719 715 713 711 710 711 712 712 712 712 709 705 705 709 711 711 711 709 707 707 707 707 705 703 703 703 704 705 705 706 706 707 709 711 711 711 712 713 714 714 714 714 715 717 718 718 718 718 717 716 717 718 718
781 779 778 777 777 775 773 771 770 769 768 766 766 766 764 765 766 766 765 765 764 763 765 765 759 753 751 750 742 733 729 731 731 728 723 718 715 714 713 713 712 713 715 714 709 706 708 712 712 712 712 711 709 708 708 707 706 706 705 704 705 706 707 707 707 707 708 709 710 710 710 711 713 714 715 717 718 720 720 719 719 719 718 718 718 719 720
780 779 778 778 776 773 771 770 769 768 767 766 765 765 764 764 763 760 759 760 760 758 757 755 750 745 744 744 739 733 729 729 729 726 722 717 714 713 714 714 712 714 718 716 709 707 710 713 713 713 712 711 709 708 707 707 707 707 707 706 706 707 708 708 708 708 708 708 709 710 710 711 711 713 715 717 718 719 720 720 720 720 720 719 719 720 722
779 779 779 777 775 772 770 768 768 768 767 765 765 765 764 762 758 754 754 756 753 747 743 743 741 739 737 738 737 733 727 723 721 720 719 716 713 713 715 714 712 716 719 715 708 707 710 712 713 712 710 708 708 708 708 708 708 708 708 707 707 708 708 708 709 709 709 710 711 712 713 713 714 715 716 717 718 720 721 721 722 722 721 721 722 723 723
780 779 778 776 774 771 769 767 767 767 766 765 766 765 761 758 755 752 750 749 744 737 733 734 733 731 728 728 730 729 723 718 717 717 717 715 712 712 713 713 713 716 716 710 706 708 711 713 714 711 707 707 708 708 708 708 708 708 707 707 708 709 709 709 710 711 711 711 713 714 714 715 716 717 718 719 720 721 722 722 722 723 724 724 724 725 725
778 777 777 776 774 771 770 767 765 764 765 765 767 766 761 755 751 749 745 742 737 732 730 728 726 724 723 722 722 722 718 714 714 715 716 714 711 711 713 715 715 714 710 706 706 710 712 712 711 707 704 705 708 708 707 708 708 708 708 708 708 709 710 711 712 713 713 713 714 715 716 717 718 719 719 719 720 722 723 723 723 724 725 726 726 727 727
776 775 776 776 773 771 769 766 762 762 765 765 764 764 761 755 750 746 743 739 735 731 729 729 727 725 723 722 721 719 717 714 714 714 714 712 711 712 715 715 712 709 706 706 709 711 711 708 705 703 703 705 707 708 707 708 708 708 709 709 709 710 711 712 712 713 714 714 715 716 717 718 720 721 721 721 721 723 724 725 725 725 726 727 728 728 729
776 774 775 776 773 770 769 766 761 760 762 760 756 756 755 752 749 746 742 738 735 732 729 729 729 726 723 722 721 719 717 716 717 716 713 711 712 714 713 710 707 706 709 710 711 712 711 707 704 703 704 704 706 707 708 708 708 708 708 709 709 710 711 712 713 713 714 715 717 718 719 720 721 722 723 723 723 723 724 726 726 726 727 728 729 729 730
777 775 776 777 774 769 767 766 762 758 756 753 751 752 751 748 747 745 740 736 734 731 729 728 727 725 723 723 723 722 721 720 718 714 711 712 712 711 708 706 706 709 712 713 712 712 710 706 702 702 703 703 704 707 707 707 708 709 708 709 709 709 710 712 713 713 714 715 717 718 719 720 721 722 723 724 724 724 725 725 726 726 727 728 729 730 731
777 775 775 778 776 770 766 765 761 756 753 752 751 751 749 746 744 741 737 734 733 729 727 726 727 725 724 724 724 725 725 723 717 712 710 710 710 707 705 707 709 711 713 713 712 710 707 702 700 701 702 702 703 706 707 708 709 709 708 709 709 709 710 712 713 713 714 716 717 719 720 720 721 722 723 724 725 725 725 726 727 727 727 728 729 730 731
777 775 775 777 775 769 764 762 759 756 755 754 752 750 747 745 743 740 736 733 731 728 725 725 724 724 724 726 728 729 729 725 718 711 707 706 708 708 709 710 711 711 710 709 708 706 702 698 697 698 700 701 703 705 706 707 708 709 709 709 710 710 710 712 712 713 714 715 717 719 720 720 721 722 722 723 724 725 726 726 727 727 728 729 730 731 731
777 777 777 776 772 766 762 762 762 759 756 754 753 751 749 747 745 741 736 734 732 729 726 724 723 723 725 728 729 731 731 727 720 711 706 706 709 710 711 712 713 711 708 706 704 702 699 697 696 697 699 701 702 704 705 706 707 707 707 708 709 709 710 711 712 713 714 715 716 718 719 720 721 722 722 723 724 725 726 727 727 727 728 729 729 730 731
777 777 776 774 772 767 763 761 761 760 758 756 755 753 751 750 746 741 737 736 735 730 725 723 723 725 729 731 730 728 729 729 722 714 710 709 708 708 709 712 714 712 710 708 706 702 699 697 697 697 698 700 701 702 703 705 706 706 706 707 708 709 710 711 712 713 714 715 716 718 719 720 721 722 722 723 724 725 726 727 727 727 728 729 729 730 731
776 776 773 771 769 767 765 763 763 763 762 761 758 754 752 751 747 741 738 739 737 732 728 726 724 725 729 733 730 726 726 727 723 716 711 710 708 708 710 714 715 713 711 709 706 702 700 699 697 696 697 699 701 701 703 704 705 706 707 707 708 709 710 711 712 713 714 715 716 718 719 720 721 721 722 723 724 725 726 727 727 727 728 729 729 730 731
775 774 771 767 766 766 766 766 765 764 762 760 757 754 752 750 745 740 738 739 738 735 733 731 727 725 727 730 727 723 722 723 722 719 717 715 712 711 713 714 712 711 710 707 704 701 701 700 698 697 697 699 700 701 703 704 705 706 707 708 708 709 710 711 712 713 714 715 716 717 719 720 720 721 722 723 724 725 726 727 727 728 728 729 729 730 731